Terug naar catalogus

STARLINK-5798

ActiefCommunicatieVLEO
NORAD 56040·PAYLOAD·🇺🇸 United States

Gelanceerd Mar 24, 2023 vanaf Cape Canaveral Space Force Station

Loading…

Volgende Passages (komende 24 uur)

TLE

VersSource: CelesTrak SupGP

Epoch: Sep 14, 2026, 21:43 UTC

1 56040C 23042BG  26257.90534722  .00048341  00000+0  17507-2 0  2578
2 56040  43.0018  42.4356 0001713 268.5384 208.0790 15.27557602    12

Volg STARLINK-5798 in realtime met AllMySat

Download on the App Store